Anchorage Merrill, AK

12:36 AM AKDT on August 24, 2017 (GMT -0800)
Merrill

Weather History for PAMR - November, 2012

Change the Weather History Date:

Monday, November 5, 2012

  Actual Average Record
Temperature  
Mean Temperature 18 °F -  
Max Temperature 26 °F 30 °F 53 °F (2002)
Min Temperature 10 °F 20 °F 0 °F (2004)
Degree Days  
Heating Degree Days 47    
Moisture  
Dew Point 6 °F    
Average Humidity 61    
Maximum Humidity 81    
Minimum Humidity 43    
Precipitation  
Precipitation 0.00 in - - ()
Sea Level Pressure  
Sea Level Pressure 29.62 in    
Wind  
Wind Speed 3 mph (NE)    
Max Wind Speed 13 mph    
Max Gust Speed -    
Visibility 10 miles    
Events      
Averages and records for this station are not official NWS values.
T = Trace of Precipitation, MM = Missing Value Source: NWS Daily Summary

Daily Weather History Graph

Daily Weather History Graph

Search for Another Location

Airport or City:

Trip Planner

Search our weather history database for the weather conditions in past years. The results will help you decide how hot, cold, wet, or windy it might be!

Date:

Astronomy

Nov. 05, 2012 Rise Set
Actual Time 8:40 AM AKST 4:45 PM AKST
Civil Twilight 7:51 AM AKST 5:33 PM AKST
Nautical Twilight 6:59 AM AKST 6:25 PM AKST
Astronomical Twilight 6:08 AM AKST 7:15 PM AKST
Moon 10:37 PM AKST (11/5) 2:05 PM AKST (11/5)
Length of Visible Light 9h 42m
Length of Day
8h 05m
Waning Gibbous, 61% of the Moon is Illuminated
Nov 5
Waning Gibbous
Nov 6
Last Quarter
Nov 13
New
Nov 20
First Quarter
Nov 28
Full

Hourly Weather History & Observations

Time (AKST) Temp. Windchill Dew Point Humidity Pressure Visibility Wind Dir Wind Speed Gust Speed Precip Events Conditions
12:53 AM 10.9 °F 4.7 °F 6.1 °F 81% 29.46 in 10.0 mi East 3.5 mph - N/A   Clear
1:53 AM 12.0 °F - 6.1 °F 77% 29.47 in 10.0 mi Calm Calm - N/A   Clear
3:53 AM 12.0 °F - 5.0 °F 73% 29.51 in 10.0 mi Calm Calm - N/A   Clear
4:53 AM 12.9 °F - 5.0 °F 71% 29.52 in 10.0 mi Calm Calm - N/A   Clear
5:53 AM 10.0 °F - 5.0 °F 80% 29.54 in 10.0 mi Calm Calm - N/A   Clear
6:53 AM 10.9 °F - 5.0 °F 77% 29.55 in 10.0 mi Calm Calm - N/A   Clear
7:53 AM 10.0 °F 3.6 °F 3.9 °F 76% 29.56 in 10.0 mi East 3.5 mph - N/A   Clear
8:53 AM 10.0 °F - 3.9 °F 76% 29.58 in 10.0 mi Calm Calm - N/A   Clear
9:53 AM 12.9 °F - 6.1 °F 74% 29.59 in 10.0 mi Calm Calm - N/A   Clear
10:53 AM 17.1 °F - 7.0 °F 65% 29.61 in 10.0 mi Calm Calm - N/A   Clear
11:53 AM 21.0 °F - 10.0 °F 63% 29.62 in 10.0 mi Calm Calm - N/A   Clear
12:53 PM 23.0 °F 17.0 °F 7.0 °F 50% 29.63 in 10.0 mi NE 4.6 mph - N/A   Mostly Cloudy
1:53 PM 23.0 °F 18.4 °F 7.0 °F 50% 29.65 in 10.0 mi East 3.5 mph - N/A   Overcast
2:53 PM 23.0 °F 18.4 °F 8.1 °F 53% 29.65 in 10.0 mi ENE 3.5 mph - N/A   Overcast
3:53 PM 24.1 °F 17.0 °F 8.1 °F 51% 29.65 in 10.0 mi NE 5.8 mph - N/A   Overcast
4:53 PM 23.0 °F 18.4 °F 9.0 °F 55% 29.66 in 10.0 mi ENE 3.5 mph - N/A   Overcast
5:53 PM 24.1 °F - 8.1 °F 51% 29.68 in 10.0 mi Calm Calm - N/A   Overcast
6:53 PM 26.1 °F 19.4 °F 6.1 °F 43% 29.70 in 10.0 mi North 5.8 mph - N/A   Overcast
7:53 PM 25.0 °F 15.5 °F 6.1 °F 45% 29.72 in 10.0 mi North 9.2 mph - N/A   Overcast
8:53 PM 25.0 °F 15.5 °F 6.1 °F 45% 29.73 in 10.0 mi North 9.2 mph - N/A   Overcast
9:53 PM 25.0 °F 17.1 °F 9.0 °F 51% 29.75 in 10.0 mi North 6.9 mph - N/A   Overcast
10:53 PM 24.1 °F 12.5 °F 6.1 °F 46% 29.76 in 10.0 mi North 12.7 mph - N/A   Overcast
11:53 PM 24.1 °F 15.2 °F 5.0 °F 44% 29.78 in 10.0 mi North 8.1 mph - N/A   Overcast